Flag for Estonia Weather past 2 weeks in Kohtla-Järve, Estonia

Now
78 °F

Sunny.


Feels Like: 79 °F
Forecast: 65 / 85 °F
Wind: 1 mph from West

Location: Johvi

Current Time: Jul 26, 2014 at 10:15:33 AM

Latest Report: Jul 26, 2014 at 9:00 AM


Visibility: 22 mi

Pressure: 30.16 "Hg

Humidity: 55%

Dew point: 60 °F

Location of Kohtla-JärveLocation

Historic Weather in Kohtla-Järve — Graph

°F

Kohtla-Järve temperature yesterday

Maximum temperature yesterday: 82 °F (at 3:00 PM)
Minimum temperature yesterday: 53 °F (at 3:00 AM)
Average temperature yesterday: 69 °F

Past Weeks' High & Low Weather Summary

 TemperatureHumidityPressure
High82 °F (Jul 25, 3:00 PM)99% (Jul 16, 2:00 AM)30.25 "Hg (Jul 16, 2:00 AM)
Low49 °F (Jul 18, 3:00 AM)33% (Jul 25, 3:00 PM)29.86 "Hg (Jul 13, 10:00 PM)
Average67 °F73%30.09 "Hg
* Reported Jul 11 9:00 AM — Jul 26 9:00 AM, Kohtla-Järve, Weather by CustomWeather, © 2014

Note: Actual official high and low records may vary slightly from our data, if they occured in-between our weather recording intervals... More about our weather records

Advertising

Kohtla-Järve weather history for previous 24 hours

 ConditionsComfort  
Time TempWeatherWind HumidityBarometerVisibility
9:00 AM
Jul 26
78 °FSunny.1 mph55%30.16 "Hg22 mi
8:00 AM73 °FSunny.No wind69%30.16 "Hg22 mi
7:00 AM65 °FScattered clouds.1 mph91%30.17 "Hg16 mi
6:00 AM58 °FSunny.1 mph94%30.16 "Hg17 mi
5:00 AM56 °FSunny.1 mph93%30.16 "Hg14 mi
4:00 AM56 °FClear.1 mph96%30.16 "Hg12 mi
3:00 AM55 °FClear.1 mph94%30.16 "Hg12 mi
2:00 AM54 °FPassing clouds.1 mph93%30.16 "Hg12 mi
1:00 AM57 °FClear.1 mph93%30.16 "Hg11 mi
12:00 AM58 °FClear.1 mph95%30.16 "Hg7 mi
11:00 PM
Jul 25
60 °FClear.No wind91%30.15 "Hg9 mi
10:00 PM62 °FClear.1 mph82%30.15 "Hg11 mi
9:00 PM73 °FSunny.1 mph63%30.15 "Hg15 mi
8:00 PM77 °FSunny.1 mph49%30.14 "Hg22 mi
7:00 PM80 °FPassing clouds.1 mph41%30.15 "Hg25 mi
6:00 PM80 °FPassing clouds.2 mph42%30.15 "Hg25 mi
5:00 PM80 °FSunny.2 mph42%30.16 "Hg22 mi
4:00 PM81 °FSunny.3 mph41%30.17 "Hg22 mi
3:00 PM82 °FSunny.2 mph33%30.18 "Hg18 mi
2:00 PM80 °FPassing clouds.1 mph34%30.19 "Hg22 mi
1:00 PM80 °FPassing clouds.1 mph36%30.21 "Hg17 mi
12:00 PM78 °FSunny.1 mph40%30.21 "Hg22 mi
11:00 AM77 °FPassing clouds.1 mph43%30.21 "Hg17 mi
10:00 AM75 °FPassing clouds.1 mph48%30.21 "Hg22 mi
Weather by CustomWeather, © 2014

See weather overviewHow to use our weather pages